Location: Squamish
(49.7000°N, 123.1500°W)
Time: 09:28:18
(UTC-08:00)

Daily predictions for brighter satellites

Satellite Brightness Start Highest point End
(mag) Time Altitude Azimuth Time Altitude Azimuth Time Altitude Azimuth
Cosmos 372 Rocket 4.0 17:22:43 10° NNW 17:27:50 88° WSW 17:32:57 10° SSE
Cosmos 1900 4.3 17:24:52 10° NW 17:29:50 80° NE 17:34:51 10° SE
Lacrosse 5 2.8 17:25:42 10° WNW 17:30:24 37° N 17:35:08 10° ENE
Cosmos 1763 Rocket 4.0 17:25:24 10° SW 17:30:32 61° WNW 17:35:38 10° NNE
Aureole 2 Rocket 3.4 17:27:41 10° S 17:31:20 39° ESE 17:35:14 10° NE
Cosmos 44 3.5 17:27:42 10° SSW 17:32:53 68° SE 17:37:49 10° NE
Cosmos 540 Rocket 3.6 17:28:06 10° S 17:33:11 59° ESE 17:38:16 10° NNE
SL-16 R/B 3.1 17:29:42 10° SSE 17:34:31 30° ESE 17:39:21 10° NE
Abrixas 3.6 17:32:12 10° SW 17:34:53 33° SSE 17:37:35 10° E
Meteor 1-27 4.3 17:30:09 10° N 17:35:59 66° ENE 17:41:47 10° SSE
Cosmos 332 Rocket 4.2 17:31:25 10° SSW 17:36:15 69° WNW 17:41:09 10° NNE
SJ-12 4.2 17:32:09 10° S 17:36:17 74° WSW 17:40:25 10° NNW
USA 116 3.3 17:33:36 10° NNE 17:36:41 50° E 17:39:43 10° S
COSMOS 2428 3.5 17:32:58 10° SW 17:38:33 52° NW 17:44:08 10° NNE
SL-14 R/B 3.4 17:36:38 10° S 17:40:31 56° E 17:44:28 10° NNE
ATLAS 3B R/B 4.0 17:35:40 10° WNW 17:41:35 26° N 17:47:15 10° NE
Cosmos 2151 3.0 17:37:36 10° S 17:41:44 58° E 17:45:53 10° NNE
Cosmos 1484 Rocket 3.0 17:38:11 10° SSE 17:42:03 51° ENE 17:45:58 10° N
Cosmos 2084 Rocket 4.4 17:39:30 10° NNW 17:42:41 25° NNE 17:45:55 10° E
BREEZE-M DEB (TANK) 4.4 17:42:28 10° SSE 17:43:15 11° SE 17:44:03 10° ESE
Cosmos 2297 3.7 17:37:57 10° NNW 17:43:42 83° ENE 17:49:27 10° SSE
ALOS 3.8 17:41:10 10° E 17:44:03 16° ENE 17:46:54 10° NNE
Cosmos 1707 Rocket 4.0 17:41:30 10° N 17:45:35 38° ENE 17:49:40 10° SE
Cosmos 1340 Rocket 3.2 17:43:36 10° SSE 17:47:16 40° E 17:50:58 10° NNE
IDEFIX/ARIANE 42P 3.2 17:42:34 10° S 17:47:45 64° WSW 17:53:00 10° NNW
COSMO-SKYMED 1 3.3 17:45:35 10° NNE 17:49:31 32° E 17:53:26 10° SSE
CZ-3A R/B 2.8 17:43:56 10° WNW 17:49:54 85° NNE 17:54:49 10° ESE
Cosmos 1634 Rocket 4.3 17:43:53 10° NNW 17:50:04 72° W 17:56:11 10° S
YAOGAN 1 2.9 17:47:25 10° S 17:51:45 72° WSW 17:56:06 10° NNW
USA 215 3.3 17:45:55 10° ESE 17:52:23 66° NNE 17:58:53 10° WNW
CZ-2C R/B 3.2 17:48:09 10° S 17:52:58 56° W 17:57:39 10° NNW
Cosmos 1869 4.3 17:53:30 10° NNE 17:56:56 25° ENE 18:00:20 10° SE
SMAP 3.9 17:54:03 10° S 17:58:37 56° W 18:03:13 10° NNW
NOAA 12 4.4 17:53:51 10° SE 17:58:46 42° ENE 18:03:43 10° N
COSMOS 2441 4.5 17:54:57 10° SSE 17:59:48 83° WSW 18:04:40 10° NNW
SL-16 R/B 4.4 17:57:00 10° WNW 18:00:02 14° NNW 18:03:05 10° N
Cosmos 1666 Rocket 4.3 17:57:00 10° SSE 18:00:51 31° E 18:04:45 10° NNE
Lacrosse 4 Rocket 1.3 17:57:47 10° NNW 18:01:49 57° NE 18:05:49 10° SE
Blok-2BL 3.6 17:59:34 10° NNW 18:02:44 43° NE 18:05:30 12° ESE
Cosmos 371 Rocket 4.0 17:58:54 10° SW 18:03:36 53° WNW 18:08:20 10° NNE
Cosmos 1626 2.7 18:02:23 10° SSE 18:05:49 35° E 18:09:16 10° NNE
Cosmos 2360 Rocket 4.2 18:02:40 10° W 18:06:56 22° NW 18:11:13 10° N
ATLAS 5 CENTAUR R/B 3.3 18:02:33 10° NW 18:07:24 28° NNE 18:11:05 16° ENE
Cosmos 1151 Rocket 4.5 18:06:51 10° NNW 18:10:52 41° W 18:14:54 10° SSW
Cosmos 1980 4.0 18:08:31 10° SW 18:14:11 68° WNW 18:19:52 10° NNE
Cosmos 1726 4.2 18:11:27 10° NNW 18:14:51 32° W 18:18:15 10° SSW
Cosmos 1184 Rocket 3.6 18:11:59 10° SSE 18:14:56 30° E 18:16:24 21° NE
Resurs 01 Rocket 2.5 18:14:36 10° ESE 18:18:19 27° ENE 18:22:02 10° N
Cosmos 2058 3.1 18:15:34 10° SSW 18:19:39 75° W 18:23:47 10° N
CENTAUR R/B 3.6 18:15:22 10° W 18:21:30 43° NNW 18:28:09 11° NE
Cosmos 921 Rocket 4.4 18:18:36 10° N 18:21:51 20° NE 18:21:51 20° NE
FREGAT/IRIS 3.1 18:20:23 10° SE 18:23:14 37° ENE 18:26:07 10° N
Cosmos 1943 Rocket 3.3 18:20:20 10° N 18:24:40 23° NE 18:26:07 20° ENE
Cosmos 1242 Rocket 2.9 18:22:29 10° N 18:25:46 37° ENE 18:29:02 10° SE
Cosmos 44 Rocket 4.5 18:23:01 10° WSW 18:27:47 39° NW 18:32:11 12° NNE
Cosmos 1455 2.0 18:25:10 10° N 18:28:59 82° E 18:32:49 10° SSE
Cosmos 2219 Rocket 3.4 18:23:58 10° WSW 18:29:14 39° NW 18:34:31 10° NNE
Cosmos 1461 2.7 18:25:51 10° SSW 18:29:59 80° SE 18:32:25 23° NE
SL-19 R/B 4.4 18:25:07 10° SE 18:30:35 50° ENE 18:35:57 10° N
Iridium 4 Rocket 3.5 18:28:14 10° SSE 18:32:12 36° E 18:36:02 10° NNE
Orbus 7S? 4.1 18:29:06 10° WNW 18:32:46 82° SSW 18:41:04 10° SE
FAST Rocket 4.1 18:30:17 10° S 18:32:55 63° E 18:36:26 10° NNE
Cosmos 1470 Rocket 4.3 18:30:16 10° SSE 18:34:01 29° E 18:34:22 29° E
Cosmos 304 Rocket 3.8 18:29:56 10° SSW 18:34:45 81° WNW 18:39:36 10° NNE
Spot 2 Rocket 3.9 18:30:32 10° SE 18:35:12 40° ENE 18:39:54 10° N
USA 229 DEB 4.1 18:29:01 10° S 18:35:25 44° ESE 18:39:27 22° ENE
USA 229 4.1 18:29:07 10° S 18:35:32 43° ESE 18:39:31 22° ENE
Cosmos 2056 Rocket 4.4 18:31:19 10° N 18:35:43 27° NE 18:36:30 26° ENE
DMSP B5D1-3 4.4 18:31:33 10° NNE 18:36:40 67° ESE 18:41:44 10° S
Cosmos 1933 4.5 18:33:51 10° N 18:36:20 25° NE 18:36:20 25° NE
SKYMED 2 3.6 18:33:23 10° NNE 18:37:46 86° WNW 18:42:07 10° SSW
CZ-4C R/B 3.5 18:32:31 10° NW 18:38:25 33° NNE 18:41:36 24° ENE
Cosmos 1356 Rocket 3.2 18:34:45 10° S 18:38:44 80° E 18:42:46 10° NNE
Cosmos 1805 Rocket 3.7 18:34:17 10° SSW 18:38:45 80° W 18:43:15 10° N
Cosmos 1603 4.2 18:34:21 10° S 18:39:23 35° ESE 18:41:26 27° ENE
Coronas F rocket 3.4 18:37:54 10° S 18:38:27 15° SSE 18:38:27 15° SSE
Cosmos 2333 Rocket 3.3 18:35:22 10° WSW 18:40:41 41° NW 18:46:03 10° NNE
Cosmos 2242 Rocket 3.4 18:38:20 10° N 18:42:47 76° E 18:47:14 10° SSE
Aureole 1 Rocket 4.1 18:38:29 10° S 18:44:16 60° ESE 18:51:46 10° NNE
FengYun 1-2 T 4.2 18:43:33 10° SSE 18:48:59 59° ENE 18:54:23 10° N
Sich 1 3.0 18:44:48 10° S 18:49:14 88° ESE 18:53:42 10° N
Cosmos 1703 3.8 18:45:36 10° SSW 18:49:26 57° WNW 18:53:18 10° N
Cosmos 1538 Rocket 4.1 18:48:56 10° SSW 18:54:16 84° WNW 18:59:05 13° NNE
S3M 4.5 18:49:29 10° N 18:55:19 36° ENE 18:56:53 32° E
SJ-6B 3.0 18:53:19 10° S 18:57:26 78° WSW 19:01:38 10° NNW
Nadezhda 4 Rocket 4.0 18:52:37 10° S 18:58:55 88° W 19:05:19 10° N
Cosmos 1371 Rocket 4.1 18:55:33 10° NNW 19:00:36 49° ENE 19:01:44 41° E
Cosmos 1633 Rocket 3.1 18:56:52 10° SSW 19:01:16 80° W 19:05:41 10° N
Cosmos 923 Rocket 4.0 18:56:58 10° S 19:02:03 57° ESE 19:03:49 37° NE
Cosmos 2026 Rocket 4.2 18:56:44 10° SSE 19:02:32 45° E 19:08:18 10° NNE
Helios 1A 4.3 19:06:16 27° NNE 19:06:16 27° NNE 19:08:26 10° N
Cosmos 1680 Rocket 3.6 19:02:59 10° S 19:08:01 50° ESE 19:08:36 48° E
Cosmos 2369 Rocket 2.1 19:02:42 10° NNW 19:08:22 67° ENE 19:10:49 34° SE
Cosmos 2237 Rocket 3.7 19:04:16 10° WSW 19:09:21 33° NW 19:14:28 10° NNE
Abrixas 3.6 19:07:14 10° W 19:09:21 42° WSW 19:09:21 42° WSW
Cosmos 972 Rocket 4.0 19:05:56 10° NNW 19:11:09 72° ENE 19:15:21 19° SSE
Meteor 1-28 Rocket 4.2 19:09:30 11° N 19:12:54 45° WNW 19:16:28 10° SW
Lacrosse 5 2.3 19:09:22 10° NW 19:14:16 45° NNE 19:14:47 44° NE
Cosmos 1867 3.5 19:11:16 10° NW 19:16:45 68° NE 19:17:51 54° ESE
SL-16 R/B 2.8 19:12:49 10° SW 19:18:22 54° NW 19:22:34 18° NNE
ALOS 2.3 19:16:13 10° SSE 19:20:53 80° WSW 19:25:36 10° NNW
Cosmos 1862 Rocket 3.6 19:16:40 10° NNW 19:21:05 77° W 19:25:24 10° S
Cosmos 1092 Rocket 4.0 19:16:08 10° S 19:22:28 82° W 19:28:52 10° N
Cosmos 2084 Rocket 3.4 19:18:42 10° NW 19:22:29 63° SW 19:22:33 63° SW
Meteor 2-10 Rocket 4.1 19:17:47 10° N 19:21:06 37° NNE 19:21:06 37° NNE
Cosmos 1553 Rocket 4.0 19:16:41 10° N 19:22:46 55° ENE 19:24:08 46° ESE
Cosmos 773 Rocket 4.2 19:20:00 10° SSW 19:25:09 69° WNW 19:28:03 27° NNE
COSMO-SKYMED 1 4.3 19:21:49 10° N 19:25:39 31° WNW 19:29:28 10° SW
NOSS 3-1 (C) 4.2 19:21:02 10° S 19:24:57 33° SE 19:24:57 33° SE
Cosmos 292 Rocket 3.6 19:26:45 10° SSW 19:31:31 89° ESE 19:31:35 87° NE
ATLAS 3B R/B 3.4 19:27:53 10° NW 19:34:21 36° NNE 19:34:50 35° NE
USA 215 3.7 19:31:27 24° SSE 19:35:31 57° SW 19:41:58 10° WNW
FENGYUN 3A 4.0 19:31:13 10° S 19:36:33 65° WSW 19:41:56 10° NNW
Meteor 1-26 Rocket 4.0 19:32:39 10° N 19:38:24 79° ENE 19:39:01 70° SE
Lacrosse 4 Rocket 4.1 19:37:21 10° WNW 19:40:08 18° WSW 19:42:54 10° SSW
Cosmos 2195 Rocket 4.4 19:38:23 10° S 19:44:31 84° W 19:50:45 10° N
Cosmos 2112 Rocket 4.1 19:39:39 10° SSW 19:44:09 67° S 19:44:09 67° S
Cosmos 1933 Rocket 4.2 19:45:40 10° SSW 19:49:56 55° W 19:49:56 55° W
Resurs 1-3 4.3 19:51:34 50° WSW 19:51:49 51° W 19:56:07 10° NNW
ATLAS 5 CENTAUR R/B 2.3 19:47:08 10° NW 19:52:40 75° NNE 19:52:40 75° NNE
Resurs 01 Rocket 2.8 19:50:26 10° SSW 19:54:38 40° W 19:58:52 10° NNW
Cosmos 1943 4.3 19:49:26 10° SSW 19:52:24 32° S 19:52:24 32° S
Cosmos 1943 Rocket 2.7 20:03:34 10° NNW 20:07:40 51° NNW 20:07:40 51° NNW
CENTAUR R/B 4.1 20:08:15 10° WNW 20:14:07 28° N 20:15:21 27° NNE
Cosmos 2056 Rocket 4.5 20:13:07 10° NNW 20:16:55 44° WNW 20:16:55 44° WNW
Cosmos 1655 Rocket 4.5 20:18:00 10° SSW 20:24:16 59° WNW 20:30:33 10° N
USA 229 DEB 4.1 20:19:30 10° WSW 20:26:17 57° NW 20:26:56 55° NNW
USA 229 4.1 20:19:35 10° WSW 20:26:22 58° NW 20:27:00 56° NNW
CZ-4C R/B 2.9 20:21:01 10° NW 20:26:49 66° NNW 20:26:49 66° NNW
Cosmos 2369 Rocket 4.2 20:47:33 10° NW 20:51:53 23° WSW 20:52:42 22° WSW
Lacrosse 5 4.2 20:52:28 10° WNW 20:54:01 20° WNW 20:54:01 20° WNW
ATLAS 3B R/B 4.2 21:18:51 10° NW 21:22:06 30° NW 21:22:06 30° NW
